| time (UTC) | temp F | wind direction | speed MPH | gust MPH | rain 1hr in | rain 24hr in | rain mn in | humidity % | barometer mb |
| 20260507113129 | 54 | 0 | 0.0 | 3.0 | 0.00 | 0.00 | 0.00 | 81 | 1015.8 |
| 20260507112559 | 54 | 118 | 2.0 | 3.0 | 0.00 | 0.00 | 0.00 | 81 | 1015.9 |
| 20260507112100 | 54 | 360 | 1.0 | 4.0 | 0.00 | 0.00 | 0.00 | 81 | 1015.9 |
| 20260507111600 | 54 | 360 | 2.0 | 4.0 | 0.00 | 0.00 | 0.00 | 81 | 1016.0 |
| 20260507111058 | 54 | 360 | 3.0 | 4.0 | 0.00 | 0.00 | 0.00 | 81 | 1016.0 |
| 20260507110559 | 54 | 360 | 2.0 | 4.0 | 0.00 | 0.00 | 0.00 | 81 | 1016.1 |
| 20260507110059 | 54 | 117 | 2.0 | 4.0 | 0.00 | 0.00 | 0.00 | 80 | 1016.1 |
| 20260507105559 | 54 | 117 | 3.0 | 4.0 | 0.00 | 0.00 | 0.00 | 80 | 1016.0 |
| 20260507105059 | 54 | 360 | 0.0 | 2.0 | 0.00 | 0.00 | 0.00 | 80 | 1016.0 |
| 20260507104558 | 54 | 360 | 0.0 | 3.0 | 0.00 | 0.00 | 0.00 | 80 | 1016.0 |
| 20260507104100 | 54 | 118 | 1.0 | 3.0 | 0.00 | 0.00 | 0.00 | 80 | 1016.0 |
| 20260507103559 | 54 | 360 | 1.0 | 3.0 | 0.00 | 0.00 | 0.00 | 80 | 1016.1 |
| 20260507103059 | 54 | 0 | 0.0 | 2.0 | 0.00 | 0.00 | 0.00 | 79 | 1016.1 |
| 20260507102559 | 54 | 0 | 0.0 | 2.0 | 0.00 | 0.00 | 0.00 | 79 | 1016.2 |
| 20260507102059 | 54 | 0 | 1.0 | 4.0 | 0.00 | 0.00 | 0.00 | 78 | 1016.3 |
| 20260507101603 | 54 | 115 | 1.0 | 4.0 | 0.00 | 0.00 | 0.00 | 78 | 1016.2 |
| 20260507101059 | 55 | 115 | 3.0 | 4.0 | 0.00 | 0.00 | 0.00 | 78 | 1016.3 |
| 20260507100604 | 55 | 118 | 1.0 | 3.0 | 0.00 | 0.00 | 0.00 | 78 | 1016.2 |
| 20260507100115 | 55 | 0 | 0.0 | 2.0 | 0.00 | 0.00 | 0.00 | 78 | 1016.3 |
| 20260507095559 | 55 | 0 | 1.0 | 2.0 | 0.00 | 0.00 | 0.00 | 77 | 1016.3 |
| 20260507095100 | 55 | 0 | 0.0 | 3.0 | 0.00 | 0.00 | 0.00 | 77 | 1016.2 |
| 20260507094615 | 56 | 0 | 1.0 | 3.0 | 0.00 | 0.00 | 0.00 | 77 | 1016.3 |
| 20260507094059 | 56 | 118 | 0.0 | 3.0 | 0.00 | 0.00 | 0.00 | 77 | 1016.4 |
| 20260507093559 | 56 | 118 | 1.0 | 3.0 | 0.00 | 0.00 | 0.00 | 77 | 1016.5 |
| 20260507093115 | 56 | 118 | 0.0 | 6.0 | 0.00 | 0.00 | 0.00 | 76 | 1016.5 |
| 20260507092559 | 56 | 117 | 3.0 | 6.0 | 0.00 | 0.00 | 0.00 | 76 | 1016.5 |
| 20260507092059 | 56 | 178 | 1.0 | 3.0 | 0.00 | 0.00 | 0.00 | 76 | 1016.5 |
| 20260507091101 | 56 | 0 | 0.0 | 0.0 | 0.00 | 0.00 | 0.00 | 75 | 1016.5 |
| 20260507090559 | 57 | 0 | 0.0 | 0.0 | 0.00 | 0.00 | 0.00 | 74 | 1016.6 |
| 20260507090110 | 57 | 0 | 0.0 | 2.0 | 0.00 | 0.00 | 0.00 | 74 | 1016.5 |
| 20260507085603 | 57 | 0 | 0.0 | 2.0 | 0.00 | 0.00 | 0.00 | 74 | 1016.5 |
| 20260507085100 | 57 | 180 | 0.0 | 1.0 | 0.00 | 0.00 | 0.00 | 74 | 1016.6 |
| 20260507084611 | 57 | 0 | 0.0 | 0.0 | 0.00 | 0.00 | 0.00 | 74 | 1016.9 |
| 20260507084100 | 57 | 0 | 0.0 | 2.0 | 0.00 | 0.00 | 0.00 | 74 | 1016.8 |
| 20260507083559 | 58 | 0 | 0.0 | 2.0 | 0.00 | 0.00 | 0.00 | 74 | 1016.8 |
| 20260507083111 | 58 | 180 | 0.0 | 3.0 | 0.00 | 0.00 | 0.00 | 74 | 1017.0 |
| 20260507082600 | 58 | 0 | 1.0 | 3.0 | 0.00 | 0.00 | 0.00 | 74 | 1016.9 |
| 20260507082059 | 58 | 0 | 0.0 | 1.0 | 0.00 | 0.00 | 0.00 | 74 | 1016.9 |
| 20260507081607 | 58 | 0 | 0.0 | 1.0 | 0.00 | 0.00 | 0.00 | 74 | 1016.8 |
| 20260507081059 | 58 | 0 | 0.0 | 0.0 | 0.00 | 0.00 | 0.00 | 74 | 1016.9 |
| 20260507080559 | 58 | 0 | 0.0 | 2.0 | 0.00 | 0.00 | 0.00 | 74 | 1017.0 |
| 20260507080107 | 58 | 0 | 0.0 | 2.0 | 0.00 | 0.00 | 0.00 | 74 | 1016.9 |
| 20260507075600 | 58 | 141 | 1.0 | 2.0 | 0.00 | 0.00 | 0.00 | 73 | 1017.0 |
| 20260507075059 | 58 | 141 | 1.0 | 2.0 | 0.00 | 0.00 | 0.00 | 73 | 1017.0 |
| 20260507074600 | 58 | 141 | 0.0 | 2.0 | 0.00 | 0.00 | 0.00 | 73 | 1017.0 |
| 20260507074105 | 59 | 0 | 0.0 | 3.0 | 0.00 | 0.00 | 0.00 | 72 | 1016.9 |
| 20260507073602 | 59 | 0 | 0.0 | 3.0 | 0.00 | 0.00 | 0.00 | 72 | 1017.0 |
| 20260507073105 | 59 | 0 | 1.0 | 3.0 | 0.00 | 0.00 | 0.00 | 72 | 1017.0 |
| 20260507072600 | 59 | 0 | 0.0 | 3.0 | 0.00 | 0.00 | 0.00 | 72 | 1017.0 |
| 20260507072059 | 59 | 141 | 0.0 | 4.0 | 0.00 | 0.00 | 0.00 | 71 | 1017.1 |
| 20260507071556 | 59 | 141 | 2.0 | 4.0 | 0.00 | 0.00 | 0.00 | 71 | 1017.3 |
| 20260507071059 | 59 | 142 | 2.0 | 4.0 | 0.00 | 0.00 | 0.00 | 71 | 1017.4 |
| 20260507070603 | 59 | 212 | 0.0 | 3.0 | 0.00 | 0.00 | 0.00 | 70 | 1017.3 |
| 20260507070106 | 59 | 0 | 1.0 | 3.0 | 0.00 | 0.00 | 0.00 | 70 | 1017.3 |
| 20260507065603 | 59 | 212 | 2.0 | 3.0 | 0.00 | 0.00 | 0.00 | 70 | 1017.4 |
| 20260507065059 | 59 | 214 | 1.0 | 3.0 | 0.00 | 0.00 | 0.00 | 70 | 1017.4 |
| 20260507064556 | 59 | 0 | 0.0 | 0.0 | 0.00 | 0.00 | 0.00 | 70 | 1017.3 |
| 20260507064100 | 59 | 0 | 0.0 | 2.0 | 0.00 | 0.00 | 0.00 | 70 | 1017.2 |
| 20260507063559 | 59 | 0 | 0.0 | 2.0 | 0.00 | 0.00 | 0.00 | 70 | 1017.3 |
| 20260507063059 | 59 | 0 | 1.0 | 4.0 | 0.00 | 0.00 | 0.00 | 70 | 1017.4 |
| 20260507062559 | 59 | 0 | 1.0 | 4.0 | 0.00 | 0.00 | 0.00 | 69 | 1017.4 |
| 20260507062100 | 59 | 235 | 2.0 | 4.0 | 0.00 | 0.00 | 0.00 | 69 | 1017.3 |
| 20260507061557 | 60 | 0 | 2.0 | 5.0 | 0.00 | 0.00 | 0.00 | 69 | 1017.4 |
| 20260507061100 | 60 | 242 | 2.0 | 5.0 | 0.00 | 0.00 | 0.00 | 69 | 1017.4 |
| 20260507060602 | 60 | 248 | 3.0 | 7.0 | 0.00 | 0.00 | 0.00 | 69 | 1017.3 |
| 20260507060103 | 60 | 258 | 5.0 | 7.0 | 0.00 | 0.00 | 0.00 | 69 | 1017.3 |
| 20260507055559 | 60 | 248 | 3.0 | 7.0 | 0.00 | 0.00 | 0.00 | 69 | 1017.3 |
| 20260507055059 | 60 | 229 | 4.0 | 7.0 | 0.00 | 0.00 | 0.00 | 69 | 1017.1 |
| 20260507054559 | 60 | 209 | 3.0 | 6.0 | 0.00 | 0.00 | 0.00 | 69 | 1017.3 |
| 20260507054103 | 60 | 241 | 3.0 | 6.0 | 0.00 | 0.00 | 0.00 | 69 | 1017.3 |
| 20260507053559 | 60 | 360 | 3.0 | 7.0 | 0.00 | 0.00 | 0.00 | 69 | 1017.1 |
| 20260507053058 | 60 | 229 | 4.0 | 7.0 | 0.00 | 0.00 | 0.00 | 69 | 1017.3 |
| 20260507052602 | 60 | 194 | 4.0 | 9.0 | 0.00 | 0.00 | 0.00 | 69 | 1017.3 |
| 20260507052059 | 61 | 225 | 5.0 | 9.0 | 0.00 | 0.00 | 0.00 | 69 | 1017.4 |
| 20260507051558 | 61 | 189 | 5.0 | 10.0 | 0.00 | 0.00 | 0.00 | 69 | 1017.4 |
| 20260507051057 | 61 | 192 | 4.0 | 10.0 | 0.00 | 0.00 | 0.00 | 69 | 1017.3 |
| 20260507050603 | 61 | 196 | 5.0 | 10.0 | 0.00 | 0.00 | 0.00 | 69 | 1017.3 |
| 20260507050059 | 61 | 205 | 4.0 | 8.0 | 0.00 | 0.00 | 0.00 | 69 | 1017.2 |
| 20260507045601 | 61 | 227 | 5.0 | 8.0 | 0.00 | 0.00 | 0.00 | 69 | 1017.2 |
| 20260507045100 | 61 | 360 | 2.0 | 7.0 | 0.00 | 0.00 | 0.00 | 68 | 1017.2 |
| 20260507044610 | 61 | 264 | 3.0 | 8.0 | 0.00 | 0.00 | 0.00 | 68 | 1017.1 |
| 20260507044059 | 62 | 257 | 3.0 | 8.0 | 0.00 | 0.00 | 0.00 | 68 | 1017.1 |
| 20260507043559 | 62 | 250 | 3.0 | 6.0 | 0.00 | 0.00 | 0.00 | 67 | 1017.0 |
| 20260507043109 | 62 | 246 | 3.0 | 5.0 | 0.00 | 0.00 | 0.00 | 67 | 1017.0 |
| 20260507042600 | 62 | 244 | 2.0 | 6.0 | 0.00 | 0.00 | 0.00 | 67 | 1017.0 |
| 20260507042059 | 62 | 239 | 4.0 | 7.0 | 0.00 | 0.00 | 0.00 | 67 | 1017.0 |
| 20260507041601 | 63 | 234 | 3.0 | 7.0 | 0.00 | 0.00 | 0.00 | 66 | 1017.0 |
| 20260507041059 | 63 | 244 | 3.0 | 8.0 | 0.00 | 0.00 | 0.00 | 66 | 1016.9 |
| 20260507040559 | 63 | 235 | 3.0 | 8.0 | 0.00 | 0.00 | 0.00 | 66 | 1016.9 |
| 20260507040059 | 63 | 270 | 5.0 | 8.0 | 0.00 | 0.00 | 0.00 | 65 | 1016.8 |
| 20260507035600 | 64 | 254 | 3.0 | 7.0 | 0.00 | 0.00 | 0.00 | 64 | 1016.8 |
| 20260507035100 | 64 | 360 | 4.0 | 7.0 | 0.00 | 0.00 | 0.00 | 64 | 1016.7 |
| 20260507034558 | 65 | 360 | 3.0 | 6.0 | 0.00 | 0.00 | 0.00 | 64 | 1016.6 |
| 20260507034059 | 65 | 360 | 2.0 | 5.0 | 0.00 | 0.00 | 0.00 | 64 | 1016.6 |
| 20260507033601 | 65 | 226 | 4.0 | 5.0 | 0.00 | 0.00 | 0.00 | 64 | 1016.5 |
| 20260507033058 | 65 | 233 | 4.0 | 6.0 | 0.00 | 0.00 | 0.00 | 64 | 1016.6 |
| 20260507032601 | 66 | 234 | 3.0 | 7.0 | 0.00 | 0.00 | 0.00 | 63 | 1016.4 |
| 20260507032059 | 66 | 231 | 4.0 | 9.0 | 0.00 | 0.00 | 0.00 | 63 | 1016.3 |
| 20260507031606 | 66 | 228 | 4.0 | 9.0 | 0.00 | 0.00 | 0.00 | 63 | 1016.2 |
| 20260507031101 | 66 | 232 | 4.0 | 10.0 | 0.00 | 0.00 | 0.00 | 62 | 1016.2 |
| 20260507030600 | 66 | 209 | 6.0 | 10.0 | 0.00 | 0.00 | 0.00 | 62 | 1016.1 |
| 20260507030057 | 67 | 236 | 5.0 | 11.0 | 0.00 | 0.00 | 0.00 | 62 | 1016.1 |
| 20260507025559 | 67 | 200 | 7.0 | 11.0 | 0.00 | 0.00 | 0.00 | 61 | 1016.0 |
| 20260507025059 | 67 | 238 | 5.0 | 11.0 | 0.00 | 0.00 | 0.00 | 61 | 1016.0 |
| 20260507024600 | 67 | 193 | 6.0 | 14.0 | 0.00 | 0.00 | 0.00 | 61 | 1016.0 |
| 20260507024056 | 68 | 360 | 8.0 | 14.0 | 0.00 | 0.00 | 0.00 | 60 | 1016.0 |
| 20260507023602 | 68 | 244 | 8.0 | 12.0 | 0.00 | 0.00 | 0.00 | 60 | 1016.0 |
| 20260507023109 | 68 | 182 | 7.0 | 15.0 | 0.00 | 0.00 | 0.00 | 59 | 1015.9 |
| 20260507022559 | 69 | 207 | 7.0 | 15.0 | 0.00 | 0.00 | 0.00 | 59 | 1015.7 |
| 20260507022100 | 69 | 224 | 8.0 | 13.0 | 0.00 | 0.00 | 0.00 | 58 | 1015.6 |
| 20260507021558 | 69 | 360 | 8.0 | 14.0 | 0.00 | 0.00 | 0.00 | 58 | 1015.5 |
| 20260507021059 | 69 | 228 | 9.0 | 17.0 | 0.00 | 0.00 | 0.00 | 58 | 1015.4 |
| 20260507020600 | 70 | 209 | 12.0 | 17.0 | 0.00 | 0.00 | 0.00 | 57 | 1015.4 |
| 20260507020105 | 70 | 227 | 11.0 | 18.0 | 0.00 | 0.00 | 0.00 | 57 | 1015.2 |
| 20260507015559 | 70 | 224 | 12.0 | 18.0 | 0.00 | 0.00 | 0.00 | 56 | 1015.3 |
| 20260507015059 | 71 | 211 | 9.0 | 18.0 | 0.00 | 0.00 | 0.00 | 56 | 1015.1 |
| 20260507014059 | 71 | 221 | 10.0 | 18.0 | 0.00 | 0.00 | 0.00 | 55 | 1015.2 |
| 20260507013600 | 72 | 193 | 11.0 | 18.0 | 0.00 | 0.00 | 0.00 | 54 | 1015.2 |
| 20260507013057 | 72 | 189 | 11.0 | 16.0 | 0.00 | 0.00 | 0.00 | 54 | 1015.1 |
| 20260507012559 | 73 | 238 | 9.0 | 16.0 | 0.00 | 0.00 | 0.00 | 53 | 1015.0 |
| 20260507012056 | 73 | 192 | 10.0 | 16.0 | 0.00 | 0.00 | 0.00 | 53 | 1014.9 |
| 20260507011601 | 73 | 194 | 11.0 | 16.0 | 0.00 | 0.00 | 0.00 | 52 | 1014.9 |
| 20260507011058 | 74 | 223 | 8.0 | 16.0 | 0.00 | 0.00 | 0.00 | 51 | 1015.1 |
| 20260507010559 | 74 | 229 | 9.0 | 16.0 | 0.00 | 0.00 | 0.00 | 51 | 1015.0 |
| 20260507010107 | 74 | 189 | 10.0 | 16.0 | 0.00 | 0.00 | 0.00 | 51 | 1014.9 |
| 20260507005600 | 75 | 232 | 8.0 | 14.0 | 0.00 | 0.00 | 0.00 | 50 | 1014.8 |
| 20260507005104 | 75 | 185 | 8.0 | 14.0 | 0.00 | 0.00 | 0.00 | 49 | 1014.9 |
| 20260507004610 | 75 | 173 | 7.0 | 15.0 | 0.00 | 0.00 | 0.00 | 50 | 1014.7 |
| 20260507004059 | 75 | 222 | 10.0 | 15.0 | 0.00 | 0.00 | 0.00 | 49 | 1014.5 |
| 20260507003556 | 75 | 200 | 10.0 | 17.0 | 0.00 | 0.00 | 0.00 | 49 | 1014.5 |
| 20260507003117 | 75 | 208 | 10.0 | 17.0 | 0.00 | 0.00 | 0.00 | 49 | 1014.5 |
| 20260507002555 | 76 | 239 | 9.0 | 16.0 | 0.00 | 0.00 | 0.00 | 48 | 1014.5 |
| 20260507002059 | 76 | 173 | 8.0 | 18.0 | 0.00 | 0.00 | 0.00 | 48 | 1014.5 |
| 20260507001617 | 76 | 241 | 10.0 | 18.0 | 0.00 | 0.00 | 0.00 | 46 | 1014.4 |
| 20260507001059 | 76 | 187 | 11.0 | 18.0 | 0.00 | 0.00 | 0.00 | 46 | 1014.5 |
| 20260507000603 | 77 | 198 | 8.0 | 19.0 | 0.00 | 0.00 | 0.00 | 45 | 1014.2 |
| 20260506235600 | 77 | 227 | 11.0 | 17.0 | 0.00 | 0.00 | 0.00 | 44 | 1014.2 |
| 20260506235100 | 78 | 221 | 6.0 | 16.0 | 0.00 | 0.00 | 0.00 | 36 | 1014.2 |
| 20260506234600 | 78 | 281 | 7.0 | 13.0 | 0.00 | 0.00 | 0.00 | 35 | 1014.1 |
| 20260506234059 | 78 | 280 | 4.0 | 15.0 | 0.00 | 0.00 | 0.00 | 35 | 1014.1 |
| 20260506233602 | 78 | 273 | 6.0 | 15.0 | 0.00 | 0.00 | 0.00 | 35 | 1014.2 |
| 20260506233102 | 79 | 273 | 6.0 | 12.0 | 0.00 | 0.00 | 0.00 | 35 | 1014.1 |
| 20260506232559 | 78 | 235 | 5.0 | 14.0 | 0.00 | 0.00 | 0.00 | 34 | 1014.1 |
| 20260506232059 | 78 | 261 | 9.0 | 14.0 | 0.00 | 0.00 | 0.00 | 34 | 1014.2 |
| 20260506231607 | 79 | 323 | 5.0 | 11.0 | 0.00 | 0.00 | 0.00 | 33 | 1014.1 |
| 20260506231100 | 79 | 257 | 7.0 | 10.0 | 0.00 | 0.00 | 0.00 | 33 | 1014.1 |
| 20260506230600 | 79 | 238 | 5.0 | 11.0 | 0.00 | 0.00 | 0.00 | 33 | 1014.1 |
| 20260506230114 | 79 | 273 | 3.0 | 11.0 | 0.00 | 0.00 | 0.00 | 33 | 1014.2 |
| 20260506225559 | 79 | 256 | 6.0 | 12.0 | 0.00 | 0.00 | 0.00 | 33 | 1014.2 |
| 20260506225059 | 78 | 211 | 3.0 | 13.0 | 0.00 | 0.00 | 0.00 | 34 | 1014.1 |
| 20260506224602 | 78 | 228 | 9.0 | 13.0 | 0.00 | 0.00 | 0.00 | 34 | 1014.3 |
| 20260506224102 | 78 | 238 | 2.0 | 15.0 | 0.00 | 0.00 | 0.00 | 34 | 1014.3 |
| 20260506223600 | 78 | 245 | 9.0 | 15.0 | 0.00 | 0.00 | 0.00 | 34 | 1014.4 |
| 20260506223104 | 78 | 256 | 8.0 | 11.0 | 0.00 | 0.00 | 0.00 | 34 | 1014.4 |
| 20260506222600 | 79 | 240 | 5.0 | 10.0 | 0.00 | 0.00 | 0.00 | 34 | 1014.5 |
| 20260506222101 | 79 | 255 | 4.0 | 10.0 | 0.00 | 0.00 | 0.00 | 34 | 1014.5 |
| 20260506221610 | 79 | 269 | 4.0 | 10.0 | 0.00 | 0.00 | 0.00 | 34 | 1014.6 |
| 20260506221059 | 78 | 190 | 3.0 | 10.0 | 0.00 | 0.00 | 0.00 | 35 | 1014.5 |
| 20260506220601 | 78 | 329 | 4.0 | 10.0 | 0.00 | 0.00 | 0.00 | 35 | 1014.9 |
| 20260506220100 | 78 | 250 | 3.0 | 8.0 | 0.00 | 0.00 | 0.00 | 36 | 1015.0 |
| 20260506215602 | 77 | 0 | 3.0 | 7.0 | 0.00 | 0.00 | 0.00 | 36 | 1015.0 |
| 20260506215058 | 76 | 188 | 3.0 | 10.0 | 0.00 | 0.00 | 0.00 | 37 | 1015.1 |
| 20260506214559 | 75 | 175 | 4.0 | 10.0 | 0.00 | 0.00 | 0.00 | 38 | 1015.3 |
| 20260506214059 | 75 | 98 | 5.0 | 10.0 | 0.00 | 0.00 | 0.00 | 38 | 1015.2 |
| 20260506213601 | 75 | 151 | 5.0 | 10.0 | 0.00 | 0.00 | 0.00 | 38 | 1015.4 |
| 20260506213103 | 75 | 94 | 2.0 | 9.0 | 0.00 | 0.00 | 0.00 | 39 | 1015.5 |
| 20260506212602 | 75 | 109 | 4.0 | 9.0 | 0.00 | 0.00 | 0.00 | 38 | 1015.5 |
| 20260506212102 | 75 | 79 | 5.0 | 8.0 | 0.00 | 0.00 | 0.00 | 38 | 1015.5 |
| 20260506211559 | 75 | 156 | 2.0 | 7.0 | 0.00 | 0.00 | 0.00 | 38 | 1015.6 |
| 20260506211059 | 75 | 33 | 4.0 | 7.0 | 0.00 | 0.00 | 0.00 | 39 | 1015.7 |
| 20260506210559 | 75 | 86 | 3.0 | 10.0 | 0.00 | 0.00 | 0.00 | 39 | 1015.8 |
| 20260506210110 | 75 | 148 | 4.0 | 10.0 | 0.00 | 0.00 | 0.00 | 38 | 1015.8 |
| 20260506205600 | 75 | 164 | 2.0 | 7.0 | 0.00 | 0.00 | 0.00 | 38 | 1015.9 |
| 20260506205056 | 75 | 38 | 2.0 | 8.0 | 0.00 | 0.00 | 0.00 | 39 | 1015.8 |
| 20260506204603 | 73 | 309 | 3.0 | 16.0 | 0.00 | 0.00 | 0.00 | 41 | 1015.9 |
| 20260506204058 | 73 | 246 | 8.0 | 16.0 | 0.00 | 0.00 | 0.00 | 40 | 1016.1 |
| 20260506203555 | 73 | 133 | 3.0 | 9.0 | 0.00 | 0.00 | 0.00 | 41 | 1016.0 |
| 20260506203122 | 72 | 140 | 0.0 | 9.0 | 0.00 | 0.00 | 0.00 | 42 | 1016.0 |
| 20260506202556 | 72 | 86 | 5.0 | 9.0 | 0.00 | 0.00 | 0.00 | 42 | 1016.2 |
| 20260506202056 | 73 | 117 | 3.0 | 8.0 | 0.00 | 0.00 | 0.00 | 41 | 1016.4 |
| 20260506201558 | 72 | 352 | 1.0 | 9.0 | 0.00 | 0.00 | 0.00 | 42 | 1016.4 |
| 20260506201059 | 72 | 148 | 3.0 | 10.0 | 0.00 | 0.00 | 0.00 | 43 | 1016.5 |
| 20260506200601 | 71 | 173 | 5.0 | 10.0 | 0.00 | 0.00 | 0.00 | 43 | 1016.3 |
| 20260506195556 | 71 | 163 | 3.0 | 9.0 | 0.00 | 0.00 | 0.00 | 45 | 1016.6 |
| 20260506195059 | 71 | 200 | 5.0 | 9.0 | 0.00 | 0.00 | 0.00 | 45 | 1016.7 |
| 20260506194605 | 71 | 266 | 5.0 | 8.0 | 0.00 | 0.00 | 0.00 | 45 | 1016.7 |
| 20260506194059 | 70 | 149 | 5.0 | 10.0 | 0.00 | 0.00 | 0.00 | 44 | 1016.8 |
| 20260506193555 | 70 | 165 | 5.0 | 11.0 | 0.00 | 0.00 | 0.00 | 44 | 1017.0 |
| 20260506193107 | 71 | 175 | 3.0 | 11.0 | 0.00 | 0.00 | 0.00 | 44 | 1017.0 |
| 20260506192558 | 71 | 138 | 5.0 | 10.0 | 0.00 | 0.00 | 0.00 | 44 | 1017.1 |
| 20260506192055 | 71 | 176 | 3.0 | 7.0 | 0.00 | 0.00 | 0.00 | 44 | 1017.1 |
| 20260506191556 | 70 | 0 | 2.0 | 7.0 | 0.00 | 0.00 | 0.00 | 45 | 1017.1 |
| 20260506191057 | 69 | 201 | 1.0 | 3.0 | 0.00 | 0.00 | 0.00 | 46 | 1017.1 |
| 20260506190602 | 68 | 0 | 2.0 | 9.0 | 0.00 | 0.00 | 0.00 | 47 | 1017.3 |
| 20260506190100 | 68 | 360 | 5.0 | 9.0 | 0.00 | 0.00 | 0.00 | 47 | 1017.2 |
| 20260506185555 | 68 | 0 | 1.0 | 6.0 | 0.00 | 0.00 | 0.00 | 46 | 1017.3 |
| 20260506185058 | 68 | 121 | 0.0 | 10.0 | 0.00 | 0.00 | 0.00 | 47 | 1017.3 |
| 20260506184556 | 68 | 242 | 2.0 | 10.0 | 0.00 | 0.00 | 0.00 | 47 | 1017.4 |
| 20260506184058 | 68 | 187 | 5.0 | 10.0 | 0.00 | 0.00 | 0.00 | 47 | 1017.5 |
| 20260506183558 | 69 | 175 | 3.0 | 9.0 | 0.00 | 0.00 | 0.00 | 46 | 1017.6 |
| 20260506183107 | 68 | 243 | 1.0 | 9.0 | 0.00 | 0.00 | 0.00 | 47 | 1017.8 |
| 20260506182555 | 68 | 280 | 4.0 | 9.0 | 0.00 | 0.00 | 0.00 | 48 | 1017.8 |
| 20260506182059 | 67 | 306 | 1.0 | 9.0 | 0.00 | 0.00 | 0.00 | 49 | 1018.0 |
| 20260506181603 | 66 | 0 | 3.0 | 9.0 | 0.00 | 0.00 | 0.00 | 50 | 1017.8 |
| 20260506181056 | 66 | 167 | 5.0 | 8.0 | 0.00 | 0.00 | 0.00 | 50 | 1017.9 |
| 20260506180559 | 65 | 222 | 1.0 | 9.0 | 0.00 | 0.00 | 0.00 | 51 | 1017.9 |
| 20260506175556 | 64 | 160 | 1.0 | 7.0 | 0.00 | 0.00 | 0.00 | 52 | 1018.0 |
| 20260506175059 | 64 | 360 | 4.0 | 9.0 | 0.00 | 0.00 | 0.00 | 53 | 1018.0 |
| 20260506174556 | 64 | 223 | 4.0 | 9.0 | 0.00 | 0.00 | 0.00 | 52 | 1018.0 |
| 20260506174058 | 64 | 251 | 3.0 | 6.0 | 0.00 | 0.00 | 0.00 | 51 | 1018.0 |
| 20260506173558 | 64 | 239 | 3.0 | 6.0 | 0.00 | 0.00 | 0.00 | 52 | 1018.0 |
| 20260506173109 | 64 | 97 | 1.0 | 5.0 | 0.00 | 0.00 | 0.00 | 53 | 1018.0 |
| 20260506172555 | 63 | 168 | 2.0 | 6.0 | 0.00 | 0.00 | 0.00 | 53 | 1018.1 |
| 20260506172059 | 63 | 254 | 2.0 | 6.0 | 0.00 | 0.00 | 0.00 | 53 | 1018.1 |
| 20260506171556 | 63 | 183 | 3.0 | 5.0 | 0.00 | 0.00 | 0.00 | 53 | 1018.1 |
| 20260506171059 | 62 | 100 | 0.0 | 5.0 | 0.00 | 0.00 | 0.00 | 54 | 1018.0 |
| 20260506170556 | 62 | 191 | 0.0 | 5.0 | 0.00 | 0.00 | 0.00 | 54 | 1018.1 |
| 20260506170107 | 62 | 263 | 3.0 | 7.0 | 0.00 | 0.00 | 0.00 | 53 | 1018.0 |
| 20260506165558 | 62 | 185 | 3.0 | 7.0 | 0.00 | 0.00 | 0.00 | 53 | 1018.1 |
| 20260506165056 | 62 | 175 | 3.0 | 6.0 | 0.00 | 0.00 | 0.00 | 53 | 1018.2 |
| 20260506164625 | 62 | 237 | 3.0 | 6.0 | 0.00 | 0.00 | 0.00 | 53 | 1018.1 |
| 20260506164056 | 62 | 245 | 0.0 | 4.0 | 0.00 | 0.00 | 0.00 | 53 | 1018.1 |
| 20260506163600 | 62 | 360 | 0.0 | 4.0 | 0.00 | 0.00 | 0.00 | 53 | 1018.2 |
| 20260506163104 | 62 | 0 | 1.0 | 4.0 | 0.00 | 0.00 | 0.00 | 55 | 1018.2 |
| 20260506162558 | 62 | 254 | 3.0 | 4.0 | 0.00 | 0.00 | 0.00 | 56 | 1018.2 |
| 20260506162055 | 62 | 0 | 0.0 | 0.0 | 0.00 | 0.00 | 0.00 | 57 | 1018.1 |
| 20260506161557 | 61 | 0 | 0.0 | 2.0 | 0.00 | 0.00 | 0.00 | 59 | 1018.1 |
| 20260506161102 | 61 | 0 | 0.0 | 3.0 | 0.00 | 0.00 | 0.00 | 60 | 1018.1 |
| 20260506160559 | 60 | 0 | 1.0 | 3.0 | 0.00 | 0.00 | 0.00 | 61 | 1018.0 |
| 20260506160109 | 60 | 92 | 0.0 | 2.0 | 0.00 | 0.00 | 0.00 | 62 | 1018.2 |
| 20260506155557 | 59 | 0 | 0.0 | 1.0 | 0.00 | 0.00 | 0.00 | 64 | 1018.0 |
| 20260506155102 | 59 | 0 | 0.0 | 3.0 | 0.00 | 0.00 | 0.00 | 64 | 1018.0 |
| 20260506154558 | 58 | 0 | 0.0 | 3.0 | 0.00 | 0.00 | 0.00 | 65 | 1017.9 |
| 20260506154056 | 58 | 0 | 0.0 | 2.0 | 0.00 | 0.00 | 0.00 | 66 | 1017.9 |
| 20260506153558 | 57 | 0 | 0.0 | 3.0 | 0.00 | 0.00 | 0.00 | 67 | 1018.0 |
| 20260506153058 | 57 | 0 | 0.0 | 4.0 | 0.00 | 0.00 | 0.00 | 68 | 1018.0 |
| 20260506152555 | 56 | 67 | 0.0 | 4.0 | 0.00 | 0.00 | 0.00 | 69 | 1018.0 |
| 20260506152101 | 56 | 67 | 1.0 | 4.0 | 0.00 | 0.00 | 0.00 | 70 | 1018.0 |
| 20260506151604 | 55 | 55 | 1.0 | 4.0 | 0.00 | 0.00 | 0.00 | 72 | 1018.0 |
| 20260506151058 | 55 | 0 | 0.0 | 3.0 | 0.00 | 0.00 | 0.00 | 74 | 1018.1 |
| 20260506150558 | 54 | 0 | 0.0 | 3.0 | 0.00 | 0.00 | 0.00 | 75 | 1018.2 |
| 20260506150107 | 53 | 0 | 1.0 | 3.0 | 0.00 | 0.00 | 0.00 | 77 | 1018.1 |
| 20260506145558 | 53 | 0 | 0.0 | 3.0 | 0.00 | 0.00 | 0.00 | 79 | 1018.0 |
| 20260506145055 | 52 | 97 | 0.0 | 2.0 | 0.00 | 0.00 | 0.00 | 81 | 1018.1 |
| 20260506144600 | 52 | 0 | 1.0 | 2.0 | 0.00 | 0.00 | 0.00 | 81 | 1018.1 |
| 20260506144059 | 51 | 106 | 0.0 | 3.0 | 0.00 | 0.00 | 0.00 | 82 | 1018.2 |
| 20260506143556 | 50 | 0 | 1.0 | 3.0 | 0.00 | 0.00 | 0.00 | 83 | 1018.2 |
| 20260506143059 | 50 | 0 | 0.0 | 0.0 | 0.00 | 0.00 | 0.00 | 83 | 1018.0 |
| 20260506142559 | 49 | 0 | 0.0 | 0.0 | 0.00 | 0.00 | 0.00 | 84 | 1018.1 |
| 20260506142055 | 49 | 0 | 0.0 | 0.0 | 0.00 | 0.00 | 0.00 | 84 | 1018.1 |
| 20260506141556 | 48 | 0 | 0.0 | 0.0 | 0.00 | 0.00 | 0.00 | 84 | 1017.9 |
| 20260506141058 | 48 | 0 | 0.0 | 2.0 | 0.00 | 0.00 | 0.00 | 85 | 1017.9 |
| 20260506140601 | 47 | 0 | 0.0 | 2.0 | 0.00 | 0.00 | 0.00 | 85 | 1017.9 |
| 20260506140057 | 47 | 360 | 0.0 | 3.0 | 0.00 | 0.00 | 0.00 | 85 | 1017.8 |
| 20260506135559 | 47 | 360 | 1.0 | 3.0 | 0.00 | 0.02 | 0.00 | 85 | 1017.7 |
| 20260506135059 | 46 | 360 | 1.0 | 3.0 | 0.00 | 0.02 | 0.00 | 85 | 1017.9 |
| 20260506134557 | 46 | 102 | 1.0 | 3.0 | 0.00 | 0.02 | 0.00 | 85 | 1017.8 |
| 20260506134101 | 46 | 99 | 2.0 | 3.0 | 0.00 | 0.02 | 0.00 | 85 | 1017.7 |
| 20260506133556 | 45 | 360 | 2.0 | 3.0 | 0.00 | 0.02 | 0.00 | 85 | 1017.6 |
| 20260506133109 | 45 | 360 | 2.0 | 3.0 | 0.00 | 0.02 | 0.00 | 85 | 1017.7 |
| 20260506132600 | 45 | 360 | 2.0 | 4.0 | 0.00 | 0.02 | 0.00 | 85 | 1017.7 |
| 20260506132102 | 45 | 360 | 2.0 | 4.0 | 0.00 | 0.02 | 0.00 | 85 | 1017.6 |
| 20260506131616 | 45 | 101 | 3.0 | 4.0 | 0.00 | 0.02 | 0.00 | 85 | 1017.5 |
| 20260506131059 | 45 | 111 | 2.0 | 4.0 | 0.00 | 0.02 | 0.00 | 85 | 1017.5 |
| 20260506130559 | 45 | 113 | 2.0 | 4.0 | 0.00 | 0.02 | 0.00 | 84 | 1017.4 |
| 20260506130059 | 46 | 111 | 2.0 | 4.0 | 0.00 | 0.02 | 0.00 | 84 | 1017.4 |
| 20260506125558 | 46 | 117 | 1.0 | 3.0 | 0.00 | 0.02 | 0.00 | 84 | 1017.4 |
| 20260506125058 | 46 | 360 | 1.0 | 4.0 | 0.00 | 0.02 | 0.00 | 84 | 1017.5 |
| 20260506124558 | 46 | 117 | 2.0 | 4.0 | 0.00 | 0.02 | 0.00 | 84 | 1017.4 |
| 20260506124059 | 46 | 117 | 2.0 | 4.0 | 0.00 | 0.02 | 0.00 | 84 | 1017.3 |
| 20260506123559 | 46 | 118 | 2.0 | 4.0 | 0.00 | 0.02 | 0.00 | 84 | 1017.3 |
| 20260506123057 | 46 | 117 | 2.0 | 3.0 | 0.00 | 0.02 | 0.00 | 84 | 1017.1 |
| 20260506122556 | 46 | 118 | 2.0 | 3.0 | 0.00 | 0.02 | 0.00 | 84 | 1017.2 |
| 20260506122057 | 46 | 118 | 1.0 | 3.0 | 0.00 | 0.02 | 0.00 | 84 | 1017.3 |
| 20260506121559 | 46 | 118 | 2.0 | 4.0 | 0.00 | 0.02 | 0.00 | 84 | 1017.1 |
| 20260506121059 | 46 | 360 | 2.0 | 4.0 | 0.00 | 0.02 | 0.00 | 84 | 1017.1 |
| 20260506120600 | 46 | 360 | 2.0 | 4.0 | 0.00 | 0.02 | 0.00 | 84 | 1017.1 |
| 20260506120104 | 46 | 118 | 2.0 | 4.0 | 0.00 | 0.02 | 0.00 | 84 | 1017.2 |
| 20260506115559 | 47 | 115 | 3.0 | 4.0 | 0.00 | 0.03 | 0.00 | 84 | 1017.2 |
| 20260506115058 | 47 | 118 | 2.0 | 4.0 | 0.00 | 0.03 | 0.00 | 83 | 1017.2 |
| 20260506114555 | 47 | 360 | 3.0 | 4.0 | 0.00 | 0.03 | 0.00 | 83 | 1017.0 |
| 20260506114058 | 47 | 360 | 2.0 | 4.0 | 0.00 | 0.03 | 0.00 | 83 | 1017.0 |
| 20260506113555 | 47 | 118 | 2.0 | 4.0 | 0.00 | 0.03 | 0.00 | 83 | 1017.1 |